Canby, MN

3:15 AM CDT on September 25, 2016 (GMT -0500)
Canby

Weather History for KCNB - September, 2012

Change the Weather History Date:

Thursday, September 13, 2012

  Actual Average (KMML) Record (KMML)
Temperature  
Mean Temperature 61 °F -  
Max Temperature 77 °F 72 °F 95 °F (1990)
Min Temperature 45 °F 51 °F 35 °F (1975)
Degree Days  
Heating Degree Days 4    
Growing Degree Days 11 (Base 50)    
Moisture  
Dew Point 39 °F    
Average Humidity 52    
Maximum Humidity 92    
Minimum Humidity 17    
Precipitation  
Precipitation 0.00 in - - ()
Sea Level Pressure  
Sea Level Pressure 30.30 in    
Wind  
Wind Speed 5 mph (WSW)    
Max Wind Speed 14 mph    
Max Gust Speed 23 mph    
Visibility 10 miles    
Events      
Averages and records for this station are not official NWS values.
T = Trace of Precipitation, MM = Missing Value Source: NWS Daily Summary

Daily Weather History Graph

Daily Weather History Graph

Search for Another Location

Airport or City:

Trip Planner

Search our weather history database for the weather conditions in past years. The results will help you decide how hot, cold, wet, or windy it might be!

Date:

Astronomy

Sep. 13, 2012 Rise Set
Actual Time 7:02 AM CDT 7:38 PM CDT
Civil Twilight 6:32 AM CDT 8:07 PM CDT
Nautical Twilight 5:57 AM CDT 8:42 PM CDT
Astronomical Twilight 5:21 AM CDT 9:18 PM CDT
Moon 4:17 AM CDT (9/13) 6:05 PM CDT (9/13)
Length of Visible Light 13h 35m
Length of Day
12h 36m
Waning Crescent, 7% of the Moon is Illuminated
Sep 13
Waning Crescent
Sep 15
New
Sep 22
First Quarter
Sep 29
Full
Oct 8
Last Quarter

Hourly Weather History & Observations

Time (CDT) Temp. Windchill Dew Point Humidity Pressure Visibility Wind Dir Wind Speed Gust Speed Precip Events Conditions
12:14 AM 55.4 °F - 50.0 °F 82% 30.28 in 10.0 mi West 11.5 mph - N/A   Clear
12:34 AM 55.0 °F - 49.6 °F 82% 30.28 in 10.0 mi West 8.1 mph - N/A   Clear
12:54 AM 54.0 °F - 49.3 °F 84% 30.29 in 10.0 mi West 3.5 mph - N/A   Clear
1:14 AM 53.8 °F - 49.5 °F 85% 30.30 in 10.0 mi West 5.8 mph - N/A   Clear
1:34 AM 53.8 °F - 49.1 °F 84% 30.30 in 10.0 mi WSW 3.5 mph - N/A   Clear
1:54 AM 53.1 °F - 48.7 °F 85% 30.30 in 10.0 mi WSW 3.5 mph - N/A   Clear
2:14 AM 51.8 °F - 48.4 °F 88% 30.31 in 10.0 mi WSW 4.6 mph - N/A   Clear
2:34 AM 51.1 °F - 48.0 °F 89% 30.31 in 10.0 mi WSW 3.5 mph - N/A   Clear
2:54 AM 50.9 °F - 47.7 °F 89% 30.30 in 10.0 mi WSW 5.8 mph - N/A   Clear
3:34 AM 50.0 °F - 47.1 °F 90% 30.31 in 10.0 mi WSW 4.6 mph - N/A   Clear
3:54 AM 49.6 °F - 46.8 °F 90% 30.31 in 10.0 mi WSW 4.6 mph - N/A   Clear
4:14 AM 49.1 °F - 46.4 °F 90% 30.31 in 10.0 mi WSW 4.6 mph - N/A   Clear
4:34 AM 48.6 °F - 45.9 °F 90% 30.32 in 10.0 mi WSW 4.6 mph - N/A   Clear
4:54 AM 47.7 °F - 45.3 °F 92% 30.32 in 10.0 mi WSW 4.6 mph - N/A   Clear
5:14 AM 47.3 °F - 44.8 °F 91% 30.32 in 10.0 mi WSW 3.5 mph - N/A   Clear
5:34 AM 47.1 °F - 44.6 °F 91% 30.32 in 10.0 mi WSW 4.6 mph - N/A   Clear
5:54 AM 47.1 °F - 44.4 °F 90% 30.32 in 10.0 mi WSW 4.6 mph - N/A   Clear
6:14 AM 46.6 °F - 44.1 °F 91% 30.32 in 10.0 mi WSW 4.6 mph - N/A   Clear
6:34 AM 45.9 °F 44.6 °F 43.5 °F 92% 30.33 in 10.0 mi WSW 3.5 mph - N/A   Clear
6:54 AM 45.7 °F 44.4 °F 43.2 °F 91% 30.33 in 10.0 mi WSW 3.5 mph - N/A   Clear
7:14 AM 45.3 °F 44.0 °F 42.8 °F 91% 30.34 in 10.0 mi WSW 3.5 mph - N/A   Clear
7:34 AM 45.5 °F 43.2 °F 42.8 °F 90% 30.34 in 10.0 mi WSW 4.6 mph - N/A   Clear
7:55 AM 46.2 °F 45.0 °F 43.7 °F 91% 30.34 in 10.0 mi WSW 3.5 mph - N/A   Clear
8:14 AM 49.3 °F - 45.5 °F 87% 30.34 in 10.0 mi Calm Calm - N/A   Clear
8:34 AM 52.7 °F - 45.7 °F 77% 30.35 in 10.0 mi Calm Calm - N/A   Clear
8:54 AM 55.8 °F - 45.1 °F 67% 30.35 in 10.0 mi Calm Calm - N/A   Clear
9:14 AM 58.8 °F - 45.3 °F 61% 30.34 in 10.0 mi Calm Calm - N/A   Clear
9:34 AM 63.1 °F - 38.1 °F 40% 30.34 in 10.0 mi Calm Calm - N/A   Clear
9:54 AM 65.1 °F - 40.3 °F 40% 30.34 in 10.0 mi SSE 4.6 mph - N/A   Clear
10:14 AM 67.6 °F - 31.6 °F 26% 30.34 in 10.0 mi SE 3.5 mph - N/A   Clear
10:34 AM 68.9 °F - 26.1 °F 20% 30.34 in 10.0 mi South 3.5 mph - N/A   Clear
10:54 AM 69.8 °F - 26.6 °F 20% 30.34 in 10.0 mi Calm Calm - N/A   Clear
11:14 AM 70.3 °F - 26.6 °F 20% 30.34 in 10.0 mi SSW 3.5 mph - N/A   Clear
11:34 AM 71.4 °F - 30.4 °F 22% 30.33 in 10.0 mi South 3.5 mph - N/A   Clear
11:54 AM 72.0 °F - 30.4 °F 21% 30.33 in 10.0 mi SW 8.1 mph - N/A   Clear
12:14 PM 73.0 °F - 31.5 °F 22% 30.32 in 10.0 mi West 9.2 mph - N/A   Clear
12:34 PM 73.2 °F - 31.8 °F 22% 30.32 in 10.0 mi West 10.4 mph - N/A   Clear
12:54 PM 74.1 °F - 30.9 °F 20% 30.32 in 10.0 mi West 8.1 mph - N/A   Clear
1:14 PM 74.5 °F - 32.4 °F 21% 30.31 in 10.0 mi WSW 13.8 mph 18.4 mph N/A   Clear
1:34 PM 74.3 °F - 31.1 °F 20% 30.30 in 10.0 mi WSW 5.8 mph - N/A   Clear
1:54 PM 75.4 °F - 30.0 °F 19% 30.30 in 10.0 mi WNW 10.4 mph 17.3 mph N/A   Clear
2:14 PM 76.5 °F - 29.8 °F 18% 30.29 in 10.0 mi WNW 8.1 mph 16.1 mph N/A   Clear
2:34 PM 76.1 °F - 28.2 °F 17% 30.28 in 10.0 mi NW 8.1 mph - N/A   Clear
2:55 PM 76.3 °F - 29.3 °F 18% 30.27 in 10.0 mi NW 11.5 mph - N/A   Clear
3:14 PM 76.3 °F - 28.4 °F 17% 30.27 in 10.0 mi SW 6.9 mph 16.1 mph N/A   Clear
3:34 PM 77.0 °F - 30.4 °F 18% 30.27 in 10.0 mi West 10.4 mph - N/A   Scattered Clouds
3:55 PM 76.1 °F - 31.1 °F 19% 30.27 in 10.0 mi WNW 9.2 mph 23.0 mph N/A   Scattered Clouds
4:14 PM 74.8 °F - 30.9 °F 20% 30.26 in 10.0 mi WNW 9.2 mph - N/A   Scattered Clouds
4:34 PM 76.1 °F - 30.6 °F 19% 30.26 in 10.0 mi West 8.1 mph 17.3 mph N/A   Scattered Clouds
4:54 PM 75.0 °F - 32.5 °F 21% 30.25 in 10.0 mi WSW 8.1 mph - N/A   Clear
5:14 PM 76.5 °F - 32.0 °F 20% 30.25 in 10.0 mi West 10.4 mph 18.4 mph N/A   Clear
5:34 PM 75.9 °F - 30.6 °F 19% 30.25 in 10.0 mi WNW 8.1 mph - N/A   Clear
5:54 PM 76.1 °F - 31.5 °F 20% 30.25 in 10.0 mi West 6.9 mph - N/A   Clear
6:14 PM 75.4 °F - 31.8 °F 20% 30.24 in 10.0 mi NW 4.6 mph - N/A   Clear
6:34 PM 74.8 °F - 32.0 °F 21% 30.24 in 10.0 mi West 4.6 mph - N/A   Clear
6:54 PM 72.7 °F - 33.6 °F 24% 30.24 in 10.0 mi NW 4.6 mph - N/A   Clear
7:14 PM 70.9 °F - 34.2 °F 26% 30.24 in 10.0 mi Calm Calm - N/A   Clear
7:34 PM 68.5 °F - 35.8 °F 30% 30.25 in 10.0 mi Calm Calm - N/A   Clear
7:54 PM 64.2 °F - 38.8 °F 39% 30.25 in 10.0 mi Calm Calm - N/A   Clear
8:15 PM 63.7 °F - 38.3 °F 39% 30.26 in 10.0 mi Calm Calm - N/A   Clear
8:34 PM 60.8 °F - 44.1 °F 54% 30.27 in 10.0 mi NW 3.5 mph - N/A   Clear
8:54 PM 61.0 °F - 42.4 °F 51% 30.27 in 7.0 mi Calm Calm - N/A   Clear
9:14 PM 60.8 °F - 43.9 °F 54% 30.27 in 10.0 mi Calm Calm - N/A   Scattered Clouds
9:34 PM 60.1 °F - 44.1 °F 55% 30.27 in 10.0 mi Calm Calm - N/A   Mostly Cloudy
9:55 PM 59.4 °F - 45.7 °F 61% 30.28 in 10.0 mi Calm Calm - N/A   Overcast
10:14 PM 59.9 °F - 44.4 °F 57% 30.28 in 10.0 mi Calm Calm - N/A   Mostly Cloudy
10:34 PM 59.2 °F - 45.0 °F 59% 30.28 in 10.0 mi Calm Calm - N/A   Scattered Clouds
10:54 PM 59.9 °F - 42.3 °F 52% 30.28 in 10.0 mi SE 4.6 mph - N/A   Mostly Cloudy
11:14 PM 61.5 °F - 36.7 °F 40% 30.28 in 10.0 mi ESE 3.5 mph - N/A   Overcast
11:34 PM 58.3 °F - 38.8 °F 48% 30.28 in 10.0 mi SE 5.8 mph - N/A   Mostly Cloudy
11:54 PM 58.3 °F - 37.8 °F 46% 30.28 in 10.0 mi SE 4.6 mph - N/A   Mostly Cloudy